Location: Long Sault Conservation Area
(44.0496°N, 78.7419°W)
Time: 13:13:25
(UTC-04:00)

Daily predictions for brighter satellites

Satellite Brightness Start Highest point End
(mag) Time Altitude Azimuth Time Altitude Azimuth Time Altitude Azimuth
Cosmos 2056 Rocket 3.6 19:24:01 10° NNW 19:29:30 86° ENE 19:34:55 10° SSE
Meteor 2-5 Rocket 4.2 19:24:16 10° NNW 19:29:53 67° W 19:35:22 10° S
Helios 1A 3.9 19:28:18 10° SE 19:31:53 29° ENE 19:35:31 10° N
Cosmos 2346 Rocket 4.5 19:26:08 10° N 19:32:15 88° E 19:38:18 10° S
ATLAS CENTAUR R/B 3.8 19:27:50 10° SSW 19:32:39 51° ESE 19:46:58 10° NE
SJ-6B 2.8 19:39:04 10° SSE 19:43:02 76° ENE 19:47:07 10° N
COSMO-SKYMED 1 3.0 19:39:20 10° N 19:43:40 68° WNW 19:47:58 10° SSW
Cosmos 2333 Rocket 3.6 19:42:52 10° SW 19:48:21 43° WNW 19:53:51 10° NNE
Timation 1 Rocket 4.4 19:44:51 10° NNW 19:50:52 87° ENE 19:56:50 10° SSE
Cosmos 192 4.4 19:47:05 10° S 19:51:58 62° ESE 19:56:53 10° NNE
NOAA 12 4.1 19:47:01 10° SSE 19:52:16 85° ENE 19:57:36 10° NNW
Spot 1 4.2 19:48:14 10° SSE 19:52:55 66° ENE 19:57:22 10° N
Cosmos 1758 3.8 19:50:10 10° SSE 19:53:57 38° E 19:57:48 10° NNE
HJ-1C 3.5 19:51:57 10° SSE 19:55:13 53° ENE 19:58:32 10° N
In-Cosmos 22 4.3 19:50:01 10° N 19:55:45 63° ENE 20:01:27 10° SSE
USA 215 3.5 19:49:32 10° ENE 19:55:53 50° SE 20:02:11 10° SSW
FengYun 1-2 T 4.4 19:51:48 10° SE 19:57:06 51° ENE 20:02:25 10° N
OAO 3 Rocket 4.5 19:55:28 10° SW 19:59:29 27° S 20:02:48 14° SE
Cosmos 1674 4.0 19:56:51 10° NNE 19:59:57 22° ENE 20:01:38 17° ESE
Aureole 2 Rocket 3.3 19:56:12 10° SSW 20:00:35 73° WNW 20:04:52 10° NNE
ISS -1.0 20:00:25 10° SE 20:00:33 10° SE 20:00:33 10° SE
Cosmos 1766 Rocket 3.5 19:59:09 10° N 20:03:33 72° E 20:07:52 10° SSE
CZ-4C R/B 3.6 20:03:58 10° WSW 20:09:05 39° NW 20:14:53 10° NNE
ALOS 2.6 20:05:00 10° SE 20:09:26 45° ENE 20:13:54 10° N
Helios 1B rocket 2.4 20:07:13 10° NNE 20:11:19 64° ESE 20:15:23 10° S
Cosmos 2034 Rocket 4.0 20:05:27 10° S 20:11:39 69° E 20:17:58 10° NNE
Cosmos 2237 Rocket 4.0 20:06:35 10° WSW 20:11:43 34° NW 20:16:52 10° N
Meteor 1-29 3.1 20:08:26 10° NNE 20:11:53 51° E 20:15:17 10° S
Meteor 1-21 Rocket 4.1 20:07:20 10° N 20:12:53 65° ENE 20:18:21 10° SSE
Cosmos 1464 Rocket 4.0 20:07:15 10° S 20:13:31 87° W 20:19:45 10° N
Cosmos 1076 Rocket 3.8 20:10:31 10° NNW 20:14:50 71° W 20:19:09 10° S
ATLAS 5 CENTAUR R/B 1.8 20:10:31 10° SSW 20:15:17 72° ESE 20:20:29 10° NE
ERS-1 Rocket 4.4 20:15:07 18° ENE 20:16:10 19° ENE 20:19:41 10° NNE
SeaSat 1 3.5 20:12:35 10° NE 20:16:28 23° ESE 20:20:18 10° SSE
Cosmos-2242 2.9 20:18:03 10° S 20:22:23 73° E 20:26:47 10° NNE
CZ-4B DEB 2.8 20:23:55 25° SSE 20:25:36 59° ENE 20:28:50 10° N
Cosmos 1452 Rocket 3.7 20:20:50 10° NNW 20:26:05 72° WSW 20:31:18 10° S
USA 186 3.8 20:32:22 11° NNE 20:32:22 11° NNE 20:32:29 10° N
SL-16 R/B 3.2 20:26:08 10° SW 20:31:39 50° WNW 20:37:12 10° NNE
NOSS 3-2 (A) 3.9 20:25:58 10° SW 20:32:04 66° NW 20:38:47 10° NNE
ATLAS CENTAUR R/B 4.4 20:31:18 10° W 20:32:48 12° WSW 20:34:15 10° SW
Cosmos 2151 4.0 20:29:58 10° NNE 20:33:19 27° ENE 20:33:19 27° ENE
CZ-2D R/B 3.2 20:33:52 26° SSE 20:35:57 66° ENE 20:39:50 10° N
Cosmos 1500 Rocket 3.6 20:32:51 10° N 20:37:15 58° E 20:39:24 28° SSE
Cosmos 1842 Rocket 3.6 20:33:24 10° SSE 20:37:35 50° E 20:41:48 10° NNE
SL-8 R/B 4.1 20:36:44 10° SW 20:41:13 42° SE 20:42:04 39° ESE
TELKOM 3 3.8 20:39:24 10° WNW 20:41:31 50° NW 20:41:31 50° NW
Cosmos 1544 3.1 20:39:04 10° S 20:42:48 82° W 20:46:35 10° N
Cosmos 468 4.4 20:39:08 10° SSW 20:44:23 89° W 20:49:40 10° NNE
Gbstr 26 Del rocket 4.3 20:42:54 10° SSW 20:45:51 27° SSE 20:45:51 27° SSE
Cosmos 1953 3.3 20:44:07 10° SSW 20:47:58 48° WNW 20:51:51 10° N
Cosmos 1420 Rocket 4.0 20:42:54 10° NNW 20:48:13 82° WSW 20:52:00 20° SSE
H-2A R/B 2.8 20:50:09 30° S 20:51:59 81° WSW 20:55:53 10° NNW
FENGYUN 3A 3.8 20:48:34 10° S 20:53:55 73° WSW 20:59:20 10° NNW
Resurs 01 Rocket 3.4 20:52:32 10° SSW 20:56:33 33° W 21:00:35 10° NNW
ASTEX 1 3.4 20:52:28 10° N 20:57:24 84° W 21:02:18 10° S
Cosmos 1743 Rocket 4.5 21:01:22 10° NNW 21:05:40 48° W 21:09:33 12° SSW
CENTAUR R/B 2.5 21:00:24 10° SSW 21:06:17 55° ESE 21:12:53 10° NE
Cosmos 1269 Rocket 4.2 21:01:36 10° SSW 21:06:52 74° WNW 21:12:10 10° NNE
ERBS 4.5 21:05:20 10° NNW 21:07:17 19° N 21:07:17 19° N
Cosmos 1048 Rocket 4.0 21:03:26 10° SSW 21:08:45 83° WNW 21:14:02 10° NNE
NOSS 3-2 (C) 4.4 21:04:38 10° WSW 21:10:36 48° NW 21:17:10 10° NNE
BREEZE-M DEB (TANK) 4.4 21:00:49 10° WSW 21:12:53 65° NNW 21:14:54 36° NE
Cosmos 2369 Rocket 2.1 21:07:22 10° NNW 21:13:04 81° ENE 21:14:17 56° SE
Cosmos 1943 3.0 21:09:10 10° SSW 21:14:44 67° ESE 21:20:19 10° NNE
Cosmos 1470 3.2 21:13:51 36° SW 21:15:10 59° W 21:19:02 10° N
Envisat 3.2 21:16:18 53° NE 21:16:18 53° NE 21:20:51 10° N
Cosmos 1943 Rocket 2.7 21:11:35 10° NNW 21:16:39 40° NE 21:16:39 40° NE
Cosmos 2263 4.1 21:12:02 10° NNW 21:17:49 66° ENE 21:18:21 62° E
Cosmos 1603 4.4 21:13:22 10° SW 21:18:58 54° WNW 21:24:39 10° NNE
Cosmos 2279 Rocket 4.1 21:22:59 54° ENE 21:22:59 54° ENE 21:28:31 10° NNE
GP-B 3.3 21:18:42 10° N 21:23:08 71° W 21:23:34 65° SW
Cosmos 1733 4.1 21:24:29 45° NNW 21:24:29 45° NNW 21:27:29 10° N
Cosmos 1655 Rocket 3.8 21:19:21 10° N 21:25:36 73° E 21:26:30 63° SE
USA 215 3.7 21:33:35 15° NE 21:38:56 57° NNW 21:45:18 10° WSW
Cosmos 2026 Rocket 4.0 21:35:44 10° N 21:41:50 78° W 21:42:57 60° SSW
Cosmos 1634 Rocket 4.4 21:37:38 10° SSW 21:43:49 62° W 21:50:00 10° N
Cosmos 1428 Rocket 4.4 21:39:33 10° N 21:45:29 74° NE 21:45:29 74° NE
H-2A R/B 4.0 21:48:55 24° N 21:48:55 24° N 21:50:46 10° N
Meteor 1-11 4.3 21:41:33 10° NNW 21:47:21 73° W 21:47:39 71° WSW
Meteor 1-16 Rocket 4.4 21:50:29 62° NNW 21:50:29 62° NNW 21:55:09 10° N
SeaSat 1 3.1 21:49:24 10° NNE 21:54:13 53° WNW 21:58:59 10° SW
ERS-1 Rocket 3.6 21:55:08 54° WNW 21:55:08 54° WNW 21:59:29 10° NNW
ATLAS 5 CENTAUR R/B 4.1 21:56:34 10° W 22:00:33 23° NNW 22:04:51 10° NNE
CENTAUR R/B 3.8 22:51:27 10° WSW 22:57:15 37° NW 23:03:46 10° NNE
Cosmos 1943 Rocket 4.2 22:55:37 10° NW 22:58:11 23° WNW 22:58:11 23° WNW
